PROBA-1 1 26958U 01049B 26036.95096598 .00005295 00000+0 34762-3 0 9997 2 26958 97.9619 40.9461 0055013 205.4299 154.4219 15.06852210323859 CUTE-1 (CO-55) 1 27844U 03031E 26036.95034950 .00000478 00000+0 22631-3 0 9999 2 27844 98.6774 47.1459 0009178 200.7192 159.3616 14.24238806172991 CUBESAT XI-IV (CO-57) 1 27848U 03031J 26036.94383250 .00000403 00000+0 19611-3 0 9994 2 27848 98.6803 46.9576 0008750 219.9114 140.1422 14.23538042172702 APRIZESAT 4 1 35684U 09041D 26036.75531890 .00001345 00000+0 16724-3 0 9990 2 35684 98.1552 109.4104 0044059 29.3840 330.9837 14.83644207891870 APRIZESAT 3 1 35686U 09041F 26036.93669821 .00003661 00000+0 32152-3 0 9994 2 35686 98.1835 184.0700 0063062 139.7972 220.7938 14.95743125896756 PROBA-2 1 36037U 09059B 26036.94400803 .00000440 00000+0 11324-3 0 9998 2 36037 98.2402 222.1246 0012545 330.6756 29.3735 14.54766748862447 APRIZESAT 5 1 37792U 11044E 26036.79433281 .00002031 00000+0 26470-3 0 9999 2 37792 98.2389 326.2030 0053858 66.3763 294.3090 14.80751285779343 APRIZESAT 6 1 37793U 11044F 26036.69640126 .00001327 00000+0 19460-3 0 9995 2 37793 98.2443 304.4819 0043973 145.1421 237.6465 14.76684644777749 PROBA-V 1 39159U 13021A 26036.89614111 .00000112 00000+0 67124-4 0 9999 2 39159 98.3457 22.0760 0004743 143.8372 216.3129 14.23565159662434 APRIZESAT 7 1 39416U 13066A 26036.85243686 .00002609 00000+0 26568-3 0 9994 2 39416 97.7551 352.1245 0034570 287.6961 72.0484 14.91164056661655 APRIZESAT 8 1 39425U 13066K 26036.83399718 .00002470 00000+0 27461-3 0 9999 2 39425 97.8076 346.2849 0046267 0.1936 359.9290 14.87314564660149 BUGSAT-1 (TITA) 1 40014U 14033E 26036.92012911 .00007670 00000+0 42161-3 0 9998 2 40014 98.0474 121.9403 0027868 268.8786 90.9251 15.14071297635961 SAUDISAT 4 1 40016U 14033G 26036.97574190 .00001439 00000+0 19673-3 0 9996 2 40016 97.7353 187.8218 0045879 139.1881 221.2782 14.79320583626679 APRIZESAT 9 1 40018U 14033J 26036.93143078 .00001232 00000+0 18917-3 0 9992 2 40018 97.8833 173.5206 0065089 262.1986 97.1830 14.73999207624224 APRIZESAT 10 1 40019U 14033K 26036.89480703 .00000828 00000+0 13798-3 0 9999 2 40019 97.9438 166.9590 0078421 333.9666 25.7605 14.70698378622952 TECHDEMOSAT-1 (TDS-1) 1 40076U 14037H 26036.94109929 .00016814 00000+0 10137-2 0 9995 2 40076 98.3741 16.4572 0006749 9.5661 350.5694 15.10833491628394 TECHNOSAT 1 42829U 17042E 26036.96146433 .00006002 00000+0 43729-3 0 9997 2 42829 97.4098 199.8241 0018025 176.4802 183.6554 15.03978373466972 FLYING LAPTOP 1 42831U 17042G 26036.96653674 .00006566 00000+0 52692-3 0 9994 2 42831 97.4216 198.0709 0015465 205.3064 154.7405 15.00298275466779 HAWK-A 1 43765U 18099H 26036.74421199 .00012528 00000+0 53016-3 0 9991 2 43765 97.4118 90.7381 0037113 30.0358 330.2997 15.22690336393082 HAWK-B 1 43794U 18099AN 26036.61520131 .00011723 00000+0 52255-3 0 9995 2 43794 97.4167 90.2861 0034423 47.0295 313.3818 15.21031399393020 HAWK-C 1 43799U 18099AT 26036.67476726 .00014676 00000+0 56169-3 0 9994 2 43799 97.4095 90.9707 0043411 32.3380 328.0505 15.25767085393848 SALSAT 1 46495U 20068K 26036.97412363 .00013707 00000+0 51090-3 0 9991 2 46495 97.8835 32.2877 0011761 50.0949 310.1321 15.27510179295311 HAWK-2C 1 47502U 21006CT 26036.10450419 .00011093 00000+0 35297-3 0 9990 2 47502 97.2480 83.0844 0005963 327.0031 33.0839 15.32737492279250 HAWK-2A 1 47505U 21006CW 26036.63030517 .00018248 00000+0 57819-3 0 9997 2 47505 97.2521 84.1995 0005658 329.2992 30.7918 15.32760420279337 HAWK-2B 1 47508U 21006CZ 26036.56177664 .00012803 00000+0 40681-3 0 9997 2 47508 97.2387 82.6857 0006139 326.0810 34.0039 15.32746101279329 HAWK-3B 1 48931U 21059BE 26036.93200556 .00049307 00000+0 63003-3 0 9996 2 48931 97.6709 222.2532 0006482 88.9047 271.2951 15.59084484257334 HAWK-3C 1 48948U 21059BX 26036.48251985 .00053611 00000+0 68527-3 0 9995 2 48948 97.6862 227.1997 0006994 91.0989 269.1067 15.59052494257261 HAWK-3A 1 48957U 21059CG 26036.48234982 .00051870 00000+0 66350-3 0 9990 2 48957 97.6794 224.5181 0006545 89.7281 270.4725 15.59044280257262 HAWK-5C 1 52754U 22057Y 26036.95999449 .00029491 00000+0 60349-3 0 9993 2 52754 97.6418 188.8407 0005061 179.4032 180.7224 15.46062396206031 HAWK-5B 1 52756U 22057AA 26036.89511913 .00029115 00000+0 59592-3 0 9995 2 52756 97.6401 187.1173 0005111 175.2177 184.9122 15.46058494206023 HAWK-5A 1 52757U 22057AB 26036.89486257 .00030138 00000+0 61661-3 0 9995 2 52757 97.6411 187.9481 0005534 176.6366 183.4921 15.46060862206022 HAWK-6B 1 55324U 23011A 26036.05469601 .00008145 00000+0 36318-3 0 9995 2 55324 40.5146 41.9196 0003314 211.0055 149.0559 15.21444140167706 HAWK-6C 1 55326U 23011C 26036.97304223 .00009220 00000+0 40968-3 0 9997 2 55326 40.4836 33.5267 0003234 204.4259 155.6397 15.21460627167859 HAWK-6A 1 55327U 23011D 26036.05409519 .00008110 00000+0 36167-3 0 9994 2 55327 40.4994 40.4398 0002738 203.4148 156.6536 15.21443082167718 HAWK-7A 1 56191U 23054P 26036.64268350 .00011524 00000+0 42595-3 0 9997 2 56191 97.2880 287.2792 0007884 198.2667 161.8291 15.27846610156955 HAWK-7B 1 56193U 23054R 26036.64257046 .00011096 00000+0 41026-3 0 9991 2 56193 97.2903 285.4928 0008292 205.9448 154.1377 15.27842555156955 HAWK-7C 1 56200U 23054Y 26036.64231653 .00010807 00000+0 39967-3 0 9996 2 56200 97.2884 286.3038 0007605 203.3753 156.7142 15.27845878156951